KD4TJG Weather Reports


Display with metric or nautical units.
time (UTC)temp
F
wind
direction
speed
MPH
gust
MPH
rain 1hr
in
rain 24hr
in
rain mn
in
humidity
%
barometer
mb
20260905214024 82 242 4.0 10.0 0.00 0.20 0.04 72 1011.5
20260905213802 82 215 4.0 8.0 0.00 0.20 0.04 72 1013.6
20260905213525 82 194 5.0 10.0 0.00 0.20 0.04 71 1011.5
20260905213046 83 172 4.0 9.0 0.00 0.20 0.04 69 1011.5
20260905212527 84 187 2.0 5.0 0.00 0.20 0.04 69 1011.4
20260905212023 84 195 1.0 3.0 0.00 0.20 0.04 69 1011.4
20260905211638 84 174 1.0 5.0 0.00 0.20 0.04 69 1013.5
20260905211617 83 174 1.0 7.0 0.00 0.20 0.04 69 1011.4
20260905211024 84 177 0.0 8.0 0.00 0.20 0.04 68 1011.5
20260905210654 85 299 3.0 6.0 0.00 0.20 0.04 66 1013.6
20260905210525 84 246 3.0 8.0 0.00 0.20 0.04 65 1011.5
20260905210054 85 281 4.0 8.0 0.00 0.20 0.04 64 1011.5
20260905205524 86 142 3.0 8.0 0.00 0.20 0.04 66 1011.4
20260905205025 85 197 3.0 7.0 0.00 0.20 0.04 68 1011.3
20260905204555 85 176 3.0 7.0 0.00 0.20 0.04 67 1011.2
20260905204439 85 181 2.0 6.0 0.00 0.20 0.04 67 1013.1
20260905204024 84 221 3.0 6.0 0.00 0.20 0.04 69 1011.0
20260905203523 84 182 2.0 6.0 0.00 0.20 0.04 69 1011.0
20260905203501 84 224 1.0 4.0 0.00 0.20 0.04 71 1013.1
20260905203103 82 255 0.0 5.0 0.00 0.20 0.04 73 1011.1
20260905202519 81 263 1.0 5.0 0.00 0.20 0.04 75 1011.1
20260905202437 82 220 1.0 4.0 0.00 0.20 0.04 76 1013.2
20260905202025 81 260 2.0 6.0 0.00 0.20 0.04 78 1011.2
20260905201545 80 208 3.0 6.0 0.00 0.20 0.04 78 1011.2
20260905201435 80 247 1.0 4.0 0.00 0.20 0.04 78 1013.3
20260905201024 79 223 1.0 5.0 0.00 0.20 0.04 80 1011.2
20260905200528 79 39 2.0 8.0 0.00 0.20 0.04 81 1011.3
20260905200438 79 211 2.0 8.0 0.00 0.20 0.04 81 1013.4
20260905200053 79 275 1.0 9.0 0.00 0.20 0.04 81 1011.3
20260905195524 78 181 3.0 9.0 0.00 0.20 0.04 82 1011.2
20260905195422 79 162 3.0 8.0 0.00 0.20 0.04 82 1013.3
20260905195027 78 197 3.0 8.0 0.00 0.20 0.04 83 1011.5
20260905194549 78 167 3.0 7.0 0.00 0.20 0.04 83 1011.6
20260905194430 78 210 2.0 5.0 0.00 0.20 0.04 83 1013.7
20260905194028 78 185 1.0 6.0 0.00 0.20 0.04 83 1012.0
20260905193525 77 206 2.0 7.0 0.00 0.20 0.04 83 1011.8
20260905193433 78 168 2.0 6.0 0.00 0.20 0.04 83 1013.9
20260905193043 78 249 2.0 7.0 0.00 0.20 0.04 83 1012.0
20260905192524 78 197 4.0 7.0 0.00 0.20 0.04 83 1011.8
20260905192419 79 216 1.0 6.0 0.00 0.20 0.04 83 1013.8
20260905192024 78 205 2.0 3.0 0.00 0.20 0.04 82 1011.5
20260905191548 79 0 0.0 3.0 0.01 0.20 0.04 81 1011.0
20260905191423 79 269 1.0 2.0 0.00 0.20 0.04 81 1013.0
20260905191026 79 231 1.0 4.0 0.01 0.20 0.04 79 1010.8
20260905190525 79 0 1.0 5.0 0.01 0.20 0.04 78 1010.6
20260905190415 80 120 2.0 4.0 0.00 0.20 0.04 78 1012.6
20260905190048 80 147 3.0 5.0 0.01 0.20 0.04 78 1010.6
20260905185525 80 108 3.0 5.0 0.01 0.20 0.04 78 1011.1
20260905185024 79 85 1.0 3.0 0.01 0.20 0.04 79 1011.4
20260905184549 79 0 0.0 4.0 0.01 0.20 0.04 80 1011.4
20260905184225 80 265 1.0 3.0 0.00 0.20 0.04 79 1013.4
20260905184023 79 265 1.0 4.0 0.01 0.20 0.04 79 1011.4
20260905183526 79 341 2.0 4.0 0.01 0.20 0.04 79 1011.7
20260905183155 80 10 1.0 17.0 0.01 0.20 0.04 78 1013.5
20260905183057 80 34 1.0 6.0 0.01 0.20 0.04 77 1011.5
20260905182525 82 0 2.0 12.0 0.01 0.20 0.04 74 1011.8
20260905182155 84 262 5.0 17.0 0.01 0.20 0.04 70 1013.8
20260905182026 85 276 4.0 23.0 0.01 0.20 0.04 69 1011.8
20260905181604 89 337 9.0 23.0 0.00 0.19 0.03 60 1011.8
20260905181206 91 233 3.0 16.0 0.00 0.19 0.03 60 1013.8
20260905181024 90 266 5.0 13.0 0.00 0.19 0.03 60 1011.6
20260905180526 91 0 1.0 8.0 0.00 0.19 0.03 59 1011.5
20260905180145 92 226 3.0 12.0 0.00 0.19 0.03 59 1013.5
20260905180042 91 307 2.0 13.0 0.00 0.19 0.03 58 1011.4
20260905175525 92 18 2.0 16.0 0.00 0.19 0.03 58 1011.7
20260905175111 94 273 3.0 12.0 0.00 0.19 0.03 56 1013.8
20260905175023 93 262 6.0 16.0 0.00 0.19 0.03 55 1011.8
20260905174555 94 228 3.0 12.0 0.00 0.19 0.03 55 1011.5
20260905174027 94 266 5.0 12.0 0.00 0.19 0.03 55 1011.5
20260905173524 94 224 3.0 11.0 0.00 0.19 0.03 56 1011.7
20260905173049 93 263 3.0 8.0 0.00 0.19 0.03 55 1011.8
20260905173002 94 274 1.0 7.0 0.00 0.19 0.03 55 1013.8
20260905172524 94 254 0.0 9.0 0.00 0.19 0.03 58 1012.0
20260905172025 94 4 1.0 12.0 0.00 0.19 0.03 60 1012.1
20260905171934 94 182 4.0 11.0 0.00 0.19 0.03 58 1014.1
20260905171546 93 226 3.0 13.0 0.00 0.19 0.03 56 1012.3
20260905171028 93 246 5.0 13.0 0.00 0.19 0.03 59 1012.4
20260905170941 93 228 1.0 11.0 0.00 0.19 0.03 58 1014.4
20260905170524 93 11 2.0 8.0 0.00 0.19 0.03 57 1012.6
20260905170055 92 12 1.0 7.0 0.00 0.19 0.03 57 1012.5
20260905165918 93 43 1.0 4.0 0.00 0.19 0.03 57 1014.6
20260905165526 93 0 2.0 7.0 0.00 0.19 0.03 58 1012.7
20260905165024 92 260 1.0 7.0 0.00 0.19 0.03 61 1012.8
20260905164918 93 307 1.0 4.0 0.00 0.19 0.03 60 1014.7
20260905164548 92 202 1.0 8.0 0.00 0.19 0.03 58 1012.9
20260905164024 93 17 1.0 9.0 0.00 0.19 0.03 57 1012.9
20260905163524 93 287 3.0 10.0 0.00 0.19 0.03 56 1012.9
20260905163049 92 249 3.0 10.0 0.00 0.19 0.03 59 1012.8
20260905162727 93 342 2.0 9.0 0.00 0.19 0.03 60 1014.9
20260905162526 92 172 2.0 7.0 0.00 0.19 0.03 58 1012.9
20260905162023 93 249 2.0 7.0 0.00 0.19 0.03 58 1013.0
20260905161724 93 301 1.0 5.0 0.00 0.19 0.03 58 1015.0
20260905161541 93 184 2.0 6.0 0.00 0.19 0.03 63 1012.9
20260905161023 91 308 1.0 7.0 0.00 0.19 0.03 60 1013.0
20260905160735 92 352 1.0 5.0 0.00 0.19 0.03 61 1015.0
20260905160524 92 244 2.0 7.0 0.00 0.19 0.03 61 1013.1
20260905160118 91 146 2.0 7.0 0.00 0.19 0.03 59 1013.0
20260905155742 92 238 2.0 8.0 0.00 0.19 0.03 62 1015.2
20260905155525 91 257 1.0 10.0 0.00 0.19 0.03 60 1013.1
20260905155024 91 261 4.0 10.0 0.00 0.19 0.03 61 1013.1
20260905154549 91 326 4.0 9.0 0.00 0.19 0.03 61 1013.1
20260905154025 91 237 4.0 10.0 0.00 0.19 0.03 62 1013.2
20260905153641 91 254 2.0 9.0 0.00 0.19 0.03 61 1015.2
20260905153525 90 226 1.0 10.0 0.00 0.19 0.03 62 1013.2
20260905153047 90 245 2.0 10.0 0.00 0.19 0.03 63 1013.3
20260905152620 90 204 3.0 6.0 0.00 0.19 0.03 64 1015.2
20260905152524 90 347 3.0 8.0 0.00 0.19 0.03 63 1013.2
20260905152024 90 278 4.0 8.0 0.00 0.19 0.03 63 1013.3
20260905151623 90 191 1.0 5.0 0.00 0.19 0.03 65 1015.2
20260905151603 89 246 3.0 6.0 0.00 0.19 0.03 66 1013.3
20260905151021 89 15 1.0 7.0 0.00 0.19 0.03 68 1013.3
20260905150524 89 195 2.0 7.0 0.00 0.19 0.03 67 1013.4
20260905150052 88 254 2.0 6.0 0.00 0.19 0.03 70 1013.4
20260905145530 88 3 3.0 7.0 0.00 0.19 0.03 69 1015.5
20260905145526 88 0 1.0 7.0 0.00 0.19 0.03 69 1013.5
20260905145029 87 220 4.0 7.0 0.00 0.19 0.03 70 1013.6
20260905144549 87 175 3.0 9.0 0.00 0.19 0.03 71 1013.7
20260905144544 87 188 3.0 7.0 0.00 0.19 0.03 71 1015.7
20260905144027 86 227 5.0 9.0 0.00 0.19 0.03 72 1013.6
20260905143559 87 213 1.0 6.0 0.00 0.19 0.03 73 1015.6
20260905143524 86 186 2.0 7.0 0.00 0.19 0.03 73 1013.6
20260905143048 86 189 2.0 7.0 0.00 0.19 0.03 73 1013.6
20260905142602 86 191 2.0 6.0 0.00 0.19 0.03 74 1015.6
20260905142523 86 170 4.0 7.0 0.00 0.19 0.03 75 1013.6
20260905142023 85 159 2.0 7.0 0.00 0.19 0.03 76 1013.5
20260905141625 86 183 1.0 5.0 0.00 0.19 0.03 73 1015.5
20260905141543 85 195 2.0 6.0 0.00 0.19 0.03 73 1013.4
20260905141024 85 230 1.0 5.0 0.00 0.19 0.03 75 1013.5
20260905140550 85 241 1.0 3.0 0.00 0.19 0.03 77 1015.5
20260905140527 84 198 2.0 4.0 0.00 0.19 0.03 77 1013.4
20260905140050 84 193 2.0 4.0 0.00 0.19 0.03 78 1013.5
20260905135613 84 212 1.0 2.0 0.00 0.19 0.03 79 1015.5
20260905135526 83 185 1.0 4.0 0.00 0.19 0.03 79 1013.4
20260905135025 83 135 1.0 4.0 0.00 0.19 0.03 80 1013.4
20260905134549 82 0 2.0 4.0 0.00 0.19 0.03 80 1013.4
20260905134546 82 235 1.0 5.0 0.00 0.19 0.03 80 1015.5
20260905134026 81 183 1.0 4.0 0.00 0.19 0.03 82 1013.4
20260905133542 81 201 1.0 5.0 0.00 0.19 0.03 82 1015.5
20260905133523 81 201 1.0 6.0 0.00 0.19 0.03 82 1013.4
20260905133042 80 172 2.0 6.0 0.00 0.19 0.03 83 1013.4
20260905132529 80 176 2.0 6.0 0.00 0.19 0.03 85 1013.3
20260905132527 80 172 1.0 5.0 0.00 0.19 0.03 85 1015.3
20260905132025 79 178 1.0 6.0 0.00 0.19 0.03 86 1013.3
20260905131548 78 145 1.0 5.0 0.00 0.19 0.03 87 1013.4
20260905131534 79 156 1.0 4.0 0.00 0.19 0.03 87 1015.5
20260905131024 78 174 2.0 4.0 0.00 0.19 0.03 87 1013.4
20260905130528 78 167 1.0 5.0 0.00 0.19 0.03 87 1015.5
20260905130526 77 167 1.0 6.0 0.00 0.19 0.03 87 1013.5
20260905130046 76 192 2.0 6.0 0.00 0.19 0.03 88 1013.6
20260905125524 76 202 3.0 6.0 0.00 0.19 0.03 88 1013.5
20260905125509 76 184 2.0 5.0 0.00 0.19 0.03 88 1015.6
20260905125023 75 181 2.0 4.0 0.00 0.19 0.03 88 1013.6
20260905124556 75 266 2.0 6.0 0.00 0.19 0.03 88 1013.6
20260905124450 75 226 1.0 3.0 0.00 0.19 0.03 88 1015.6
20260905124025 74 208 2.0 6.0 0.00 0.19 0.03 88 1013.6
20260905123525 74 190 0.0 3.0 0.00 0.19 0.03 88 1013.7
20260905123513 74 187 1.0 2.0 0.00 0.19 0.03 88 1015.7
20260905123051 73 168 1.0 3.0 0.00 0.19 0.03 88 1013.7
20260905122525 72 163 1.0 4.0 0.00 0.19 0.03 88 1013.6
20260905122503 73 163 1.0 2.0 0.00 0.19 0.03 88 1015.7
20260905122025 72 183 0.0 4.0 0.00 0.19 0.03 88 1013.7
20260905121546 72 146 1.0 4.0 0.00 0.19 0.03 88 1013.7
20260905121434 72 159 0.0 1.0 0.00 0.19 0.03 89 1015.7
20260905121024 72 0 1.0 2.0 0.00 0.19 0.03 89 1013.6
20260905120525 71 190 0.0 2.0 0.00 0.19 0.03 88 1013.6
20260905120042 71 0 0.0 1.0 0.00 0.19 0.03 89 1013.6
20260905115525 71 0 0.0 1.0 0.00 0.19 0.03 88 1013.5
20260905115236 71 190 0.0 0.0 0.00 0.19 0.03 89 1015.5
20260905115027 70 0 0.0 1.0 0.00 0.19 0.03 89 1013.4
20260905114553 70 0 0.0 2.0 0.00 0.19 0.03 89 1013.5
20260905114226 71 190 0.0 1.0 0.00 0.19 0.03 89 1015.4
20260905114024 70 0 0.0 3.0 0.00 0.19 0.03 89 1013.3
20260905113525 69 190 1.0 3.0 0.00 0.19 0.03 89 1013.1
20260905113052 69 0 0.0 0.0 0.00 0.19 0.03 89 1013.1
20260905112527 69 0 0.0 0.0 0.00 0.19 0.03 89 1013.1
20260905112125 69 273 0.0 0.0 0.00 0.19 0.03 89 1015.0
20260905112025 69 0 0.0 0.0 0.00 0.19 0.03 89 1013.1
20260905111601 69 0 0.0 0.0 0.00 0.19 0.03 89 1013.0
20260905111103 69 273 0.0 0.0 0.00 0.19 0.03 89 1015.0
20260905111025 69 0 0.0 0.0 0.00 0.19 0.03 89 1013.0
20260905110527 69 0 0.0 0.0 0.00 0.19 0.03 89 1013.0
20260905110058 68 0 0.0 0.0 0.00 0.19 0.03 88 1013.0
20260905105525 69 0 0.0 0.0 0.00 0.19 0.03 89 1013.0
20260905105023 69 0 0.0 0.0 0.00 0.19 0.03 88 1012.9
20260905104921 69 273 0.0 0.0 0.00 0.19 0.03 88 1014.9
20260905104550 69 0 0.0 0.0 0.00 0.19 0.03 88 1012.8
20260905104024 69 0 0.0 0.0 0.00 0.19 0.03 88 1012.8
20260905103847 70 273 0.0 0.0 0.00 0.19 0.03 88 1014.8
20260905103524 69 0 0.0 0.0 0.00 0.19 0.03 88 1012.8
20260905103053 69 0 0.0 0.0 0.00 0.19 0.03 89 1012.7
20260905102526 69 0 0.0 0.0 0.00 0.19 0.03 88 1012.7
20260905102024 69 0 0.0 0.0 0.00 0.19 0.03 88 1012.8
20260905101722 70 273 0.0 0.0 0.00 0.19 0.03 88 1014.7
20260905101548 69 0 0.0 0.0 0.00 0.19 0.03 89 1012.7
20260905101024 69 0 0.0 0.0 0.00 0.19 0.03 89 1012.6
20260905100726 70 273 0.0 0.0 0.00 0.19 0.03 89 1014.6
20260905100523 69 0 0.0 0.0 0.00 0.19 0.03 89 1012.6
20260905100053 69 0 0.0 0.0 0.00 0.19 0.03 88 1012.6
20260905095654 70 273 0.0 0.0 0.00 0.19 0.03 88 1014.6
20260905095524 69 0 0.0 0.0 0.00 0.19 0.03 88 1012.6
20260905095025 70 0 0.0 0.0 0.00 0.19 0.03 88 1012.5
20260905094632 70 273 0.0 0.0 0.00 0.19 0.03 88 1014.7
20260905094549 70 0 0.0 0.0 0.00 0.19 0.03 88 1012.6
20260905094024 70 0 0.0 0.0 0.00 0.19 0.03 88 1012.7
20260905093618 70 273 0.0 0.0 0.00 0.19 0.03 88 1014.6
20260905093529 70 0 0.0 0.0 0.00 0.19 0.03 88 1012.6
20260905093046 70 0 0.0 0.0 0.00 0.19 0.03 88 1012.6
20260905092524 70 0 0.0 0.0 0.00 0.19 0.03 88 1012.6
20260905092023 70 0 0.0 1.0 0.00 0.19 0.03 88 1012.7
20260905091612 70 0 0.0 1.0 0.00 0.19 0.03 88 1012.7
20260905091549 71 273 0.0 0.0 0.00 0.19 0.03 88 1014.7
20260905091026 70 0 0.0 1.0 0.00 0.19 0.03 88 1012.8
20260905090532 71 273 0.0 0.0 0.00 0.19 0.03 88 1014.8
20260905090525 70 0 0.0 1.0 0.00 0.19 0.03 88 1012.8
20260905090106 70 0 0.0 1.0 0.00 0.19 0.03 88 1012.8
20260905085525 70 0 0.0 1.0 0.00 0.19 0.03 88 1012.8
20260905085026 70 0 0.0 1.0 0.00 0.19 0.03 88 1012.7
20260905084554 70 0 0.0 1.0 0.00 0.19 0.03 88 1012.8
20260905084447 71 273 0.0 0.0 0.00 0.19 0.03 88 1014.8
20260905084025 70 0 0.0 1.0 0.00 0.19 0.03 88 1012.9
20260905083526 70 0 0.0 1.0 0.00 0.19 0.03 88 1012.9
20260905083459 71 273 0.0 0.0 0.00 0.19 0.03 88 1015.0
20260905083045 71 0 0.0 2.0 0.00 0.19 0.03 88 1012.9
20260905082523 70 0 0.0 2.0 0.00 0.19 0.03 88 1013.0
20260905082519 71 273 0.0 0.0 0.00 0.19 0.03 88 1015.0
20260905082024 71 273 1.0 2.0 0.00 0.19 0.03 88 1013.0
20260905081553 71 273 0.0 1.0 0.00 0.19 0.03 88 1013.0
20260905081537 71 273 0.0 0.0 0.00 0.19 0.03 88 1015.0
20260905081026 71 0 0.0 0.0 0.00 0.19 0.03 88 1013.1
20260905080537 71 273 0.0 0.0 0.00 0.19 0.03 88 1015.2
20260905080523 71 0 0.0 0.0 0.00 0.19 0.03 88 1013.1
20260905080055 71 0 0.0 0.0 0.00 0.19 0.03 88 1013.2
20260905075525 71 0 0.0 1.0 0.00 0.19 0.03 88 1013.3
20260905075520 72 273 0.0 0.0 0.00 0.19 0.03 88 1015.3
20260905075024 71 0 0.0 1.0 0.00 0.19 0.03 88 1013.3
20260905074547 71 273 0.0 2.0 0.00 0.19 0.03 88 1013.4
20260905074536 72 273 0.0 0.0 0.00 0.19 0.03 88 1015.4
20260905074026 71 0 0.0 2.0 0.00 0.19 0.03 88 1013.4
20260905073523 72 300 0.0 2.0 0.01 0.19 0.03 88 1013.4
20260905073513 72 341 0.0 0.0 0.00 0.19 0.03 88 1015.5
20260905073059 72 0 0.0 2.0 0.01 0.19 0.03 88 1013.5
20260905072524 72 0 0.0 2.0 0.02 0.19 0.03 88 1013.4
20260905072522 72 13 0.0 0.0 0.00 0.19 0.03 88 1015.4
20260905072023 72 0 0.0 2.0 0.03 0.19 0.03 88 1013.3
20260905071552 72 13 0.0 2.0 0.03 0.19 0.03 88 1013.3
20260905071029 72 0 0.0 2.0 0.03 0.19 0.03 88 1013.2
20260905070524 72 13 1.0 3.0 0.03 0.19 0.03 88 1013.2
20260905070344 72 353 1.0 2.0 0.00 0.19 0.03 88 1015.2
20260905070048 72 347 1.0 4.0 0.03 0.19 0.03 88 1013.2
20260905065525 72 56 1.0 4.0 0.03 0.19 0.03 88 1013.3
20260905065339 72 90 1.0 10.0 0.04 0.19 0.03 88 1015.3
20260905065024 72 170 1.0 11.0 0.03 0.19 0.03 88 1013.3
20260905064546 72 139 3.0 11.0 0.03 0.19 0.03 88 1013.5
20260905064357 72 137 3.0 10.0 0.06 0.19 0.03 88 1015.8
20260905064025 72 238 4.0 9.0 0.03 0.19 0.03 88 1014.3
20260905063523 73 239 2.0 6.0 0.02 0.18 0.02 88 1014.5
20260905063413 73 210 0.0 2.0 0.08 0.18 0.02 88 1016.5
20260905063041 73 0 0.0 3.0 0.02 0.18 0.02 88 1014.4
20260905062524 73 60 0.0 3.0 0.01 0.17 0.01 88 1014.4
20260905062350 73 5 1.0 3.0 0.01 0.16 0.01 88 1016.6
20260905062024 73 129 1.0 3.0 0.00 0.16 0.00 88 1014.4
20260905061618 73 139 1.0 3.0 0.00 0.16 0.00 88 1014.7
20260905061414 73 262 0.0 2.0 0.00 0.16 0.00 88 1016.7
20260905061025 73 0 0.0 2.0 0.00 0.16 0.00 88 1014.7
20260905060528 72 0 0.0 4.0 0.00 0.16 0.00 88 1014.9
20260905060353 73 320 0.0 0.0 0.00 0.16 0.00 88 1017.0
20260905060101 72 0 1.0 4.0 0.00 0.16 0.00 88 1015.1
20260905055527 72 129 2.0 4.0 0.00 0.16 0.00 88 1014.9
20260905055321 73 145 1.0 2.0 0.00 0.16 0.00 88 1016.8
20260905055027 72 151 1.0 3.0 0.00 0.16 0.00 88 1014.9
20260905054546 73 278 1.0 3.0 0.00 0.16 0.00 88 1015.2
20260905054301 73 278 0.0 1.0 0.00 0.16 0.00 88 1017.0
20260905054024 72 0 0.0 1.0 0.00 0.16 0.00 88 1014.9
20260905053524 72 0 0.0 2.0 0.00 0.16 0.00 88 1015.1
20260905053250 73 133 0.0 0.0 0.00 0.16 0.00 88 1017.2
20260905053046 72 0 0.0 2.0 0.00 0.16 0.00 88 1015.3
20260905052527 72 0 1.0 2.0 0.00 0.16 0.00 88 1015.3
20260905052257 73 133 0.0 1.0 0.00 0.16 0.00 88 1017.3
20260905052025 72 133 1.0 2.0 0.00 0.16 0.00 88 1015.4
20260905051542 72 0 0.0 1.0 0.00 0.16 0.00 88 1015.5
20260905051240 73 133 0.0 0.0 0.00 0.16 0.00 88 1017.5
20260905051024 72 133 0.0 2.0 0.00 0.16 0.00 88 1015.5
20260905050524 72 0 0.0 2.0 0.00 0.16 0.00 88 1015.4
20260905050048 72 133 0.0 2.0 0.00 0.16 0.00 88 1015.3
20260905045528 72 0 0.0 3.0 0.00 0.16 0.00 88 1015.5
20260905045121 73 133 0.0 2.0 0.00 0.16 0.00 88 1017.6
20260905045024 72 0 0.0 3.0 0.00 0.16 0.00 88 1015.5
20260905044546 72 212 0.0 2.0 0.00 0.16 0.00 88 1015.6
20260905044117 73 266 0.0 1.0 0.00 0.16 0.00 88 1017.8
20260905044023 73 266 0.0 2.0 0.00 0.16 0.00 88 1015.8
20260905043523 73 0 1.0 2.0 0.00 0.16 0.00 88 1015.8
20260905043101 73 266 0.0 0.0 0.00 0.16 0.00 88 1017.9
20260905043043 73 0 0.0 2.0 0.00 0.16 0.00 88 1015.9
20260905042525 73 0 0.0 1.0 0.00 0.16 0.00 88 1015.9
20260905042124 73 266 0.0 0.0 0.00 0.16 0.00 88 1018.0
20260905042024 73 266 0.0 1.0 0.00 0.16 0.00 88 1016.0
20260905041559 73 0 0.0 1.0 0.00 0.16 0.00 88 1016.0
20260905041049 73 266 0.0 0.0 0.00 0.16 0.00 88 1018.0
20260905041027 73 0 0.0 3.0 0.00 0.16 0.00 88 1015.9
20260905040524 73 0 0.0 4.0 0.00 0.16 0.00 88 1015.9
20260905040052 73 161 2.0 4.0 0.00 0.16 0.00 88 1015.9
20260905040048 73 156 0.0 2.0 0.00 0.16 0.00 88 1017.9
20260905035524 73 0 0.0 0.0 0.00 0.16 0.16 88 1015.6
20260905035028 73 0 0.0 0.0 0.01 0.16 0.16 88 1015.6
20260905034554 72 0 0.0 0.0 0.01 0.16 0.16 88 1015.4
20260905034022 72 0 0.0 0.0 0.01 0.16 0.16 88 1015.2
20260905033925 73 124 0.0 0.0 0.00 0.16 0.16 88 1017.1
20260905033523 73 0 0.0 0.0 0.01 0.16 0.16 88 1015.2
20260905033041 73 0 0.0 0.0 0.01 0.16 0.16 88 1015.2
20260905032936 73 124 0.0 0.0 0.00 0.16 0.16 88 1017.1
20260905032524 73 0 0.0 0.0 0.01 0.16 0.16 88 1015.1
20260905032024 73 0 0.0 0.0 0.01 0.16 0.16 88 1014.9
20260905031917 73 124 0.0 0.0 0.00 0.16 0.16 88 1017.0
20260905031553 73 0 0.0 0.0 0.01 0.16 0.16 88 1014.9
20260905031025 73 0 0.0 0.0 0.01 0.16 0.16 88 1014.8
20260905030938 73 124 0.0 0.0 0.00 0.16 0.16 88 1016.9
20260905030525 73 0 0.0 0.0 0.01 0.16 0.16 87 1015.0
20260905030050 73 0 0.0 0.0 0.01 0.16 0.16 87 1015.0
20260905025904 74 124 0.0 0.0 0.01 0.16 0.16 87 1016.9
20260905025524 73 0 0.0 1.0 0.01 0.16 0.16 87 1014.8
20260905025026 73 0 0.0 1.0 0.00 0.15 0.15 87 1014.9
20260905024904 74 124 0.0 0.0 0.00 0.14 0.15 87 1016.7
20260905024541 73 0 0.0 1.0 0.00 0.15 0.15 87 1014.6
20260905024025 73 0 0.0 1.0 0.00 0.15 0.15 87 1014.4
20260905023841 74 124 0.0 0.0 0.00 0.14 0.15 87 1016.5
20260905023525 73 0 0.0 2.0 0.00 0.15 0.15 87 1014.6
20260905023049 73 0 0.0 2.0 0.00 0.15 0.15 87 1014.6
20260905022853 74 124 0.0 1.0 0.00 0.14 0.15 87 1016.7
20260905022527 73 124 0.0 2.0 0.00 0.15 0.15 87 1014.9
20260905022025 73 0 0.0 1.0 0.00 0.15 0.15 87 1014.9
20260905021552 73 124 0.0 1.0 0.00 0.15 0.15 87 1014.9
20260905021028 73 0 0.0 2.0 0.00 0.15 0.15 87 1015.0
20260905020748 74 124 0.0 0.0 0.00 0.14 0.15 87 1016.9
20260905020528 73 0 0.0 2.0 0.00 0.15 0.15 87 1014.9
20260905020046 73 124 1.0 2.0 0.00 0.15 0.15 87 1014.8
20260905015759 74 178 0.0 1.0 0.00 0.14 0.15 87 1016.6
20260905015524 74 0 0.0 0.0 0.00 0.15 0.15 87 1014.6
20260905015024 74 0 0.0 1.0 0.00 0.15 0.15 87 1014.7
20260905014818 74 178 0.0 0.0 0.00 0.14 0.15 87 1016.6
20260905014543 74 0 0.0 1.0 0.00 0.15 0.15 87 1014.4
20260905014024 74 0 0.0 1.0 0.00 0.15 0.15 87 1014.4
20260905013748 74 178 0.0 0.0 0.00 0.14 0.15 87 1016.3
20260905013524 74 0 0.0 1.0 0.00 0.15 0.15 87 1014.2
20260905013052 74 0 0.0 1.0 0.00 0.15 0.15 87 1014.0
20260905012724 74 178 0.0 0.0 0.00 0.14 0.15 87 1016.1
20260905012525 74 0 0.0 1.0 0.00 0.15 0.15 87 1014.1
20260905012025 74 178 0.0 1.0 0.00 0.15 0.15 87 1014.1
20260905011701 75 178 0.0 0.0 0.00 0.14 0.15 87 1016.1
20260905011551 74 0 0.0 2.0 0.00 0.15 0.15 87 1014.1
20260905011024 74 178 0.0 2.0 0.00 0.15 0.15 87 1014.3
20260905010628 75 178 0.0 1.0 0.00 0.14 0.15 87 1016.2
20260905010524 74 178 1.0 2.0 0.00 0.15 0.15 87 1014.2
20260905010045 74 0 0.0 1.0 0.00 0.15 0.15 87 1014.2
20260905005635 75 178 0.0 0.0 0.00 0.14 0.15 87 1016.2
20260905005523 74 0 0.0 1.0 0.01 0.15 0.15 87 1014.2
20260905005023 74 0 0.0 1.0 0.08 0.15 0.15 87 1014.1
20260905004613 75 178 0.0 1.0 0.00 0.14 0.15 87 1016.2
20260905004548 74 178 0.0 2.0 0.14 0.15 0.15 87 1014.2
20260905004023 75 0 0.0 2.0 0.15 0.15 0.15 87 1014.1
20260905003628 75 178 0.0 1.0 0.00 0.14 0.15 87 1016.1
20260905003524 75 178 1.0 2.0 0.15 0.15 0.15 87 1014.1
20260905003049 75 0 0.0 2.0 0.15 0.15 0.15 86 1014.3
20260905002619 75 178 0.0 0.0 0.00 0.14 0.15 86 1016.5
20260905002524 75 178 0.0 2.0 0.15 0.15 0.15 86 1014.4
20260905002025 75 0 0.0 3.0 0.15 0.15 0.15 86 1014.4
20260905001555 75 0 0.0 4.0 0.15 0.15 0.15 86 1014.5
20260905001025 75 170 2.0 4.0 0.15 0.15 0.15 86 1014.7
20260905000524 76 241 3.0 4.0 0.15 0.15 0.15 85 1015.0
20260905000451 76 244 1.0 3.0 0.06 0.14 0.15 85 1017.0
20260905000042 76 318 2.0 4.0 0.15 0.15 0.15 84 1015.0
20260904235525 77 143 1.0 4.0 0.14 0.14 0.14 82 1015.2
20260904235456 78 151 1.0 3.0 1.29 0.09 0.13 82 1017.2
20260904235026 79 183 1.0 3.0 0.06 0.06 0.06 80 1015.5
20260904234542 80 243 1.0 6.0 0.00 0.00 0.00 76 1015.8
20260904234456 80 224 1.0 6.0 0.00 0.00 0.00 76 1017.7
20260904234024 80 261 0.0 6.0 0.00 0.00 0.00 75 1015.6
20260904233524 80 47 2.0 8.0 0.00 0.00 0.00 74 1015.6
20260904233511 80 53 2.0 6.0 0.00 0.00 0.00 74 1017.5
20260904233111 80 166 2.0 8.0 0.00 0.00 0.00 74 1015.5
20260904232524 80 146 3.0 7.0 0.00 0.00 0.00 73 1015.5
20260904232517 81 155 3.0 7.0 0.00 0.00 0.00 73 1017.5
20260904232026 81 90 4.0 8.0 0.00 0.00 0.00 71 1015.2
20260904231554 81 75 4.0 9.0 0.00 0.00 0.00 70 1015.4
20260904231513 82 80 3.0 9.0 0.00 0.00 0.00 70 1017.4
20260904231023 82 126 4.0 9.0 0.00 0.00 0.00 69 1015.2
20260904230524 82 75 2.0 11.0 0.00 0.00 0.00 68 1015.4
20260904230045 83 131 5.0 11.0 0.00 0.00 0.00 67 1015.0
20260904225523 83 120 2.0 9.0 0.00 0.00 0.00 66 1014.8
20260904225408 84 169 3.0 8.0 0.00 0.00 0.00 65 1016.8
20260904225025 84 119 3.0 10.0 0.00 0.00 0.00 64 1014.8
20260904224557 85 167 2.0 11.0 0.00 0.00 0.00 64 1014.8
20260904224025 86 108 5.0 15.0 0.00 0.00 0.00 63 1014.8
20260904223524 87 116 7.0 15.0 0.00 0.00 0.00 61 1014.8
20260904223208 89 111 7.0 13.0 0.00 0.00 0.00 59 1016.8
20260904223101 89 102 7.0 17.0 0.00 0.00 0.00 58 1015.0
20260904222525 91 112 8.0 17.0 0.00 0.00 0.00 55 1014.7
20260904222209 93 112 1.0 8.0 0.00 0.00 0.00 53 1016.8
20260904222024 93 0 1.0 4.0 0.00 0.00 0.00 51 1014.5
20260904221550 94 0 1.0 10.0 0.00 0.00 0.00 52 1014.5
20260904221217 94 320 4.0 11.0 0.00 0.00 0.00 52 1016.4
20260904221024 94 130 5.0 12.0 0.00 0.00 0.00 51 1014.4
20260904220524 94 217 5.0 12.0 0.00 0.00 0.00 51 1014.1
20260904220229 95 247 4.0 14.0 0.00 0.00 0.00 51 1016.2
20260904220044 94 250 4.0 12.0 0.00 0.00 0.00 52 1014.2
20260904215524 95 1 3.0 15.0 0.00 0.00 0.00 54 1014.0
20260904215241 95 117 4.0 14.0 0.00 0.00 0.00 52 1016.0
20260904215024 95 290 5.0 15.0 0.00 0.00 0.00 52 1013.9
20260904214552 95 223 4.0 9.0 0.00 0.00 0.00 50 1013.7